太空蜂星座NZ-18星 (SPACEBEENZ-18)

导读

SPACEBEENZ-18是新西兰发射的小型卫星,于UTC时间2022年5月2日8时成功升空,是新西兰商业航天发射序列中的一颗任务卫星。该卫星依托当地成熟的火箭发射设施完成部署,延续了新西兰在小型卫星发射领域的商业航天布局,服务于相关太空技术验证与空间应用任务,是2022年南太平洋地区商业航天发射活动的组成部分。

基本信息
目录编号:
52398
目录名称:
SPACEBEENZ-18
国际标识:
2022-047E
轨道中心:
EARTH
卫星名称:
太空蜂星座NZ-18星
卫星全名:
太空蜂星座NZ-18星 (SPACEBEENZ-18)
卫星状态:
已陨落 最后检测时间 2024-01-02
发射日期:
2022-05-02 UTC
国别 :
(NZ)
星等 :
--
轨道信息
数据来源 国际轨道数据
星历时间: 2024-01-02T13:58:00+0800
轨道信息已过期924天
半长轴: 6567.414km
偏心率: 0.0010563
轨道倾角: 97.373°
近地点辐角 302.687°
升交点赤经 97.745°
平近点角 57.341°
近地点: 182.341km
远地点: 196.217km
周期: 88.278分钟
每日圈数: 16.312152
详细信息
平衡模式:
三轴稳定
覆盖范围:
全球
运营商:
蜂群科技公司
运营商所在国:
美国
制造商(研发单位):
蜂群科技公司
制造商所在国:
美国
使用方式:
暂无
卫星简介
太空蜜蜂(SpaceBEE)皮卫星建立在0.25U立方体卫星平台上,是私营公司蜂群科技公司(Swarm Technologies)开发的卫星星座的一部分。该星座计划由大约150颗皮卫星组成,提供双向卫星通信和数据中继。该卫星已陨落。